Brenham, TX

12:01 PM CST on February 13, 2016 (GMT -0600)
Brenham

Weather History for K11R - December, 2012

Change the Weather History Date:

Friday, December 28, 2012

  Actual Average (KCLL) Record (KCLL)
Temperature  
Mean Temperature 47 °F 51 °F  
Max Temperature 55 °F 61 °F 80 °F (1921)
Min Temperature 37 °F 41 °F 20 °F (1924)
Degree Days  
Heating Degree Days 18 15  
Month to date heating degree days 367  
Since 1 July heating degree days 592  
Cooling Degree Days 0 0  
Month to date cooling degree days 13  
Year to date cooling degree days 3086  
Moisture  
Dew Point 44 °F    
Average Humidity 81    
Maximum Humidity 94    
Minimum Humidity 67    
Precipitation  
Precipitation 0.02 in 0.10 in 1.62 in (1962)
Month to date precipitation 2.93  
Year to date precipitation 39.76  
Sea Level Pressure  
Sea Level Pressure 29.96 in    
Wind  
Wind Speed 8 mph (NNW)    
Max Wind Speed 23 mph    
Max Gust Speed 29 mph    
Visibility 7 miles    
Events Fog , Rain    
T = Trace of Precipitation, MM = Missing Value Source: NWS Daily Summary

Daily Weather History Graph

Daily Weather History Graph

Search for Another Location

Airport or City:

Trip Planner

Search our weather history database for the weather conditions in past years. The results will help you decide how hot, cold, wet, or windy it might be!

Date:

Astronomy

Dec. 28, 2012 Rise Set
Actual Time 7:20 AM CST 5:33 PM CST
Civil Twilight 6:54 AM CST 6:00 PM CST
Nautical Twilight 6:24 AM CST 6:30 PM CST
Astronomical Twilight 5:55 AM CST 6:59 PM CST
Moon 6:07 PM CST (12/28) 7:19 AM CST (12/28)
Length of Visible Light 11h 05m
Length of Day
10h 13m
Full, 100% of the Moon is Illuminated
Dec 28
Full
Jan 4
Last Quarter
Jan 11
New
Jan 18
First Quarter
Jan 26
Full

Hourly Weather History & Observations

Time (CST) Temp. Windchill Dew Point Humidity Pressure Visibility Wind Dir Wind Speed Gust Speed Precip Events Conditions
12:15 AM 50.0 °F - 46.4 °F 87% 29.84 in 0.5 mi Calm Calm - N/A Fog Fog
12:35 AM 50.0 °F - 46.4 °F 87% 29.82 in 0.5 mi Calm Calm - N/A Rain Light Rain
12:55 AM 50.0 °F - 48.2 °F 94% 29.82 in 0.5 mi Calm Calm - N/A   Drizzle
1:15 AM 50.0 °F - 48.2 °F 94% 29.81 in 0.5 mi Calm Calm - N/A Fog Fog
1:35 AM 50.0 °F - 48.2 °F 94% 29.81 in 0.5 mi Calm Calm - N/A Rain Rain
1:55 AM 50.0 °F - 48.2 °F 94% 29.80 in 0.2 mi Calm Calm - N/A Fog Fog
2:15 AM 51.8 °F - 50.0 °F 94% 29.80 in 0.2 mi Calm Calm - N/A Fog Fog
2:35 AM 51.8 °F - 50.0 °F 94% 29.80 in 0.2 mi Calm Calm - N/A Fog Fog
2:55 AM 51.8 °F - 50.0 °F 94% 29.80 in 0.2 mi Calm Calm - 0.01 in Fog Fog
3:15 AM 51.8 °F - 50.0 °F 94% 29.79 in 0.2 mi Calm Calm - N/A Fog Fog
3:35 AM 51.8 °F - 50.0 °F 94% 29.79 in 0.2 mi Calm Calm - N/A Fog Fog
3:55 AM 51.8 °F - 50.0 °F 94% 29.79 in 0.2 mi Calm Calm - N/A Fog Fog
4:15 AM 51.8 °F - 50.0 °F 94% 29.80 in 0.2 mi WNW 8.1 mph - N/A Fog Fog
4:35 AM 51.8 °F - 50.0 °F 94% 29.81 in 0.5 mi NW 10.4 mph - N/A   Light Drizzle
4:55 AM 50.0 °F - 48.2 °F 94% 29.80 in 0.5 mi NW 9.2 mph - N/A Fog Fog
5:15 AM 50.0 °F - 48.2 °F 94% 29.82 in 0.8 mi NNW 10.4 mph - N/A   Drizzle
5:35 AM 50.0 °F - 48.2 °F 94% 29.82 in 1.5 mi NNW 8.1 mph - N/A Rain Light Rain
5:55 AM 50.0 °F - 48.2 °F 94% 29.84 in 2.5 mi NW 13.8 mph - N/A   Light Drizzle
6:15 AM 50.0 °F - 46.4 °F 87% 29.85 in 2.5 mi NW 12.7 mph - N/A   Drizzle
6:35 AM 50.0 °F - 46.4 °F 87% 29.86 in 3.0 mi NNW 11.5 mph - N/A Rain Light Rain
6:55 AM 48.2 °F - 46.4 °F 93% 29.87 in 5.0 mi NNW 9.2 mph - N/A   Overcast
7:15 AM 48.2 °F - 46.4 °F 93% 29.88 in 7.0 mi NNW 6.9 mph - N/A   Overcast
7:35 AM 48.2 °F - 46.4 °F 93% 29.89 in 10.0 mi NW 8.1 mph - N/A   Overcast
7:55 AM 48.2 °F - 46.4 °F 93% 29.89 in 7.0 mi NNW 5.8 mph - 0.01 in   Overcast
8:15 AM 48.2 °F - 46.4 °F 93% 29.90 in 10.0 mi NNW 5.8 mph - N/A   Overcast
8:35 AM 48.2 °F - 46.4 °F 93% 29.90 in 10.0 mi NW 3.5 mph - N/A   Overcast
8:55 AM 50.0 °F - 46.4 °F 87% 29.90 in 10.0 mi NNW 6.9 mph - N/A   Overcast
9:15 AM 50.0 °F - 46.4 °F 87% 29.92 in 10.0 mi NW 10.4 mph - N/A   Overcast
9:35 AM 50.0 °F - 46.4 °F 87% 29.93 in 10.0 mi NW 12.7 mph - N/A   Overcast
9:55 AM 50.0 °F - 46.4 °F 87% 29.93 in 10.0 mi NW 13.8 mph - N/A   Overcast
10:15 AM 50.0 °F - 46.4 °F 87% 29.94 in 10.0 mi NW 12.7 mph 18.4 mph N/A   Overcast
10:35 AM 51.8 °F - 48.2 °F 88% 29.93 in 10.0 mi NW 11.5 mph 17.3 mph N/A   Overcast
10:55 AM 51.8 °F - 48.2 °F 88% 29.94 in 10.0 mi NW 15.0 mph - N/A   Overcast
11:15 AM 53.6 °F - 46.4 °F 77% 29.93 in 10.0 mi NNW 19.6 mph 26.5 mph N/A   Mostly Cloudy
11:35 AM 53.6 °F - 46.4 °F 77% 29.93 in 10.0 mi NNW 18.4 mph 24.2 mph N/A   Overcast
11:55 AM 53.6 °F - 46.4 °F 77% 29.92 in 10.0 mi NNW 17.3 mph 24.2 mph N/A   Overcast
12:15 PM 53.6 °F - 46.4 °F 77% 29.91 in 10.0 mi NW 16.1 mph 24.2 mph N/A   Overcast
12:35 PM 53.6 °F - 46.4 °F 77% 29.90 in 10.0 mi NNW 13.8 mph 19.6 mph N/A   Overcast
12:55 PM 55.4 °F - 46.4 °F 72% 29.89 in 10.0 mi NNW 12.7 mph - N/A   Mostly Cloudy
1:15 PM 55.4 °F - 46.4 °F 72% 29.91 in 10.0 mi NNW 19.6 mph 25.3 mph N/A   Scattered Clouds
1:35 PM 53.6 °F - 44.6 °F 72% 29.92 in 10.0 mi NNW 23.0 mph 27.6 mph N/A   Mostly Cloudy
1:55 PM 53.6 °F - 44.6 °F 72% 29.93 in 10.0 mi NNW 19.6 mph 28.8 mph N/A   Overcast
2:15 PM 53.6 °F - 42.8 °F 67% 29.93 in 10.0 mi NNW 20.7 mph 27.6 mph N/A   Overcast
2:35 PM 53.6 °F - 44.6 °F 72% 29.94 in 10.0 mi NNW 20.7 mph 27.6 mph N/A   Overcast
2:55 PM 53.6 °F - 44.6 °F 72% 29.94 in 10.0 mi North 20.7 mph 25.3 mph N/A   Overcast
3:15 PM 53.6 °F - 44.6 °F 72% 29.95 in 10.0 mi NNW 16.1 mph 21.9 mph N/A   Mostly Cloudy
3:35 PM 53.6 °F - 42.8 °F 67% 29.96 in 10.0 mi NNW 16.1 mph 24.2 mph N/A   Mostly Cloudy
3:55 PM 53.6 °F - 42.8 °F 67% 29.97 in 10.0 mi North 17.3 mph 24.2 mph N/A   Mostly Cloudy
4:15 PM 51.8 °F - 42.8 °F 71% 29.99 in 10.0 mi NNW 20.7 mph 26.5 mph N/A   Mostly Cloudy
4:35 PM 51.8 °F - 42.8 °F 71% 30.00 in 10.0 mi NNW 16.1 mph 21.9 mph N/A   Overcast
4:55 PM 50.0 °F - 41.0 °F 71% 30.01 in 10.0 mi North 16.1 mph 24.2 mph N/A   Overcast
5:15 PM 50.0 °F - 41.0 °F 71% 30.02 in 10.0 mi NNW 13.8 mph 23.0 mph N/A   Overcast
5:35 PM 50.0 °F - 41.0 °F 71% 30.03 in 10.0 mi North 13.8 mph 19.6 mph N/A   Overcast
5:55 PM 50.0 °F - 41.0 °F 71% 30.05 in 10.0 mi NNW 13.8 mph 19.6 mph N/A   Overcast
6:15 PM 48.2 °F - 41.0 °F 76% 30.06 in 10.0 mi NNW 15.0 mph 21.9 mph N/A   Overcast
6:35 PM 46.4 °F 39.5 °F 39.2 °F 76% 30.08 in 10.0 mi NNW 17.3 mph 27.6 mph N/A   Overcast
6:55 PM 46.4 °F 39.5 °F 37.4 °F 71% 30.09 in 10.0 mi NNW 17.3 mph 25.3 mph N/A   Overcast
7:15 PM 46.4 °F 40.7 °F 37.4 °F 71% 30.10 in 10.0 mi NNW 12.7 mph 17.3 mph N/A   Overcast
7:35 PM 46.4 °F 39.2 °F 37.4 °F 71% 30.12 in 10.0 mi NNW 18.4 mph - N/A   Overcast
7:55 PM 44.6 °F 37.4 °F 37.4 °F 76% 30.13 in 10.0 mi NW 16.1 mph - N/A   Overcast
8:15 PM 44.6 °F 38.1 °F 35.6 °F 71% 30.15 in 10.0 mi NW 13.8 mph 21.9 mph N/A   Overcast
8:35 PM 44.6 °F 37.4 °F 35.6 °F 71% 30.15 in 10.0 mi NNW 16.1 mph 26.5 mph N/A   Overcast
8:55 PM 44.6 °F 36.9 °F 35.6 °F 71% 30.16 in 10.0 mi NW 18.4 mph 26.5 mph N/A   Overcast
9:15 PM 42.8 °F 36.2 °F 33.8 °F 70% 30.16 in 10.0 mi NNW 12.7 mph 24.2 mph N/A   Overcast
9:35 PM 42.8 °F 34.3 °F 33.8 °F 70% 30.17 in 10.0 mi NNW 19.6 mph 23.0 mph N/A   Overcast
9:55 PM 42.8 °F 35.8 °F 33.8 °F 70% 30.19 in 10.0 mi NNW 13.8 mph 17.3 mph N/A   Overcast
10:15 PM 41.0 °F 33.5 °F 32.0 °F 70% 30.20 in 10.0 mi NNW 13.8 mph 20.7 mph N/A   Overcast
10:35 PM 41.0 °F 33.1 °F 32.0 °F 70% 30.20 in 10.0 mi NNW 15.0 mph 21.9 mph N/A   Scattered Clouds
10:55 PM 41.0 °F 34.3 °F 32.0 °F 70% 30.20 in 10.0 mi NNW 11.5 mph - N/A   Clear
11:15 PM 39.2 °F 33.0 °F 32.0 °F 75% 30.21 in 10.0 mi NNW 9.2 mph 19.6 mph N/A   Clear
11:35 PM 39.2 °F 32.5 °F 32.0 °F 75% 30.21 in 10.0 mi NNW 10.4 mph - N/A   Clear
11:55 PM 37.4 °F 29.8 °F 32.0 °F 81% 30.21 in 10.0 mi NNW 11.5 mph 17.3 mph N/A   Clear